Time,TemperatureF,DewpointF,PressureIn,WindDirection,WindDirectionDegrees,WindSpeedMPH,WindSpeedGustMPH,Humidity,HourlyPrecipIn,Conditions,Clouds,dailyrainin,SoftwareType,DateUTC
2013-05-01 00:01:00,44.0,-99.9,30.48,WNW,283,2.0,4.0,-999,-99.99,,,-99.99,,2013-05-01 07:01:00,
2013-05-01 00:11:00,44.0,-99.9,30.48,West,278,2.0,3.0,-999,-99.99,,,-99.99,,2013-05-01 07:11:00,
2013-05-01 00:22:00,44.0,-99.9,30.49,NNW,341,2.0,4.0,-999,-99.99,,,-99.99,,2013-05-01 07:22:00,
2013-05-01 00:32:00,44.0,-99.9,30.49,NNW,348,2.0,6.0,-999,-99.99,,,-99.99,,2013-05-01 07:32:00,
2013-05-01 00:42:00,43.0,-99.9,30.49,North,4,3.0,4.0,-999,-99.99,,,-99.99,,2013-05-01 07:42:00,
2013-05-01 00:52:00,43.0,-99.9,30.50,South,185,1.0,2.0,-999,-99.99,,,-99.99,,2013-05-01 07:52:00,
2013-05-01 01:02:00,43.0,-99.9,30.50,WSW,240,2.0,3.0,-999,-99.99,,,-99.99,,2013-05-01 08:02:00,
2013-05-01 01:12:00,43.0,-99.9,30.50,WSW,245,4.0,5.0,-999,-99.99,,,-99.99,,2013-05-01 08:12:00,
2013-05-01 01:22:00,43.0,-99.9,30.50,NW,324,3.0,5.0,-999,-99.99,,,-99.99,,2013-05-01 08:22:00,
2013-05-01 01:32:00,43.0,-99.9,30.50,NNW,340,1.0,3.0,-999,-99.99,,,-99.99,,2013-05-01 08:32:00,
2013-05-01 01:42:00,41.0,-99.9,30.50,North,1,4.0,5.0,-999,-99.99,,,-99.99,,2013-05-01 08:42:00,
2013-05-01 01:53:00,41.0,-99.9,30.51,North,351,3.0,4.0,-999,-99.99,,,-99.99,,2013-05-01 08:53:00,
2013-05-01 02:02:00,41.0,-99.9,30.51,North,-999,2.0,3.0,-999,-99.99,,,-99.99,,2013-05-01 09:02:00,
2013-05-01 02:12:00,41.0,-99.9,30.51,NNE,15,2.0,4.0,-999,-99.99,,,-99.99,,2013-05-01 09:12:00,
2013-05-01 02:22:00,40.0,-99.9,30.51,ENE,62,3.0,3.0,-999,-99.99,,,-99.99,,2013-05-01 09:22:00,
2013-05-01 02:33:00,39.0,-99.9,30.50,ENE,73,2.0,4.0,-999,-99.99,,,-99.99,,2013-05-01 09:33:00,
2013-05-01 02:43:00,39.0,-99.9,30.51,NE,37,2.0,4.0,-999,-99.99,,,-99.99,,2013-05-01 09:43:00,
2013-05-01 02:53:00,39.0,-99.9,30.51,NNE,17,3.0,5.0,-999,-99.99,,,-99.99,,2013-05-01 09:53:00,
2013-05-01 03:03:00,39.0,-99.9,30.51,NNE,16,4.0,5.0,-999,-99.99,,,-99.99,,2013-05-01 10:03:00,
2013-05-01 03:12:00,39.0,-99.9,30.51,North,9,1.0,2.0,-999,-99.99,,,-99.99,,2013-05-01 10:12:00,
2013-05-01 03:22:00,38.0,-99.9,30.51,ENE,61,1.0,2.0,-999,-99.99,,,-99.99,,2013-05-01 10:22:00,
2013-05-01 03:33:00,38.0,-99.9,30.51,North,4,1.0,3.0,-999,-99.99,,,-99.99,,2013-05-01 10:33:00,
2013-05-01 03:42:00,38.0,-99.9,30.52,North,8,2.0,3.0,-999,-99.99,,,-99.99,,2013-05-01 10:42:00,
2013-05-01 03:53:00,38.0,-99.9,30.52,North,1,1.0,2.0,-999,-99.99,,,-99.99,,2013-05-01 10:53:00,
2013-05-01 04:03:00,38.0,-99.9,30.52,NNE,19,2.0,3.0,-999,-99.99,,,-99.99,,2013-05-01 11:03:00,
2013-05-01 04:11:00,37.0,-99.9,30.52,NE,49,2.0,3.0,-999,-99.99,,,-99.99,,2013-05-01 11:11:00,
2013-05-01 04:22:00,37.0,-99.9,30.52,East,87,4.0,5.0,-999,-99.99,,,-99.99,,2013-05-01 11:22:00,
2013-05-01 04:32:00,37.0,-99.9,30.52,ENE,70,2.0,4.0,-999,-99.99,,,-99.99,,2013-05-01 11:32:00,
2013-05-01 04:42:00,37.0,-99.9,30.52,NE,37,1.0,3.0,-999,-99.99,,,-99.99,,2013-05-01 11:42:00,
2013-05-01 04:52:00,36.0,-99.9,30.53,ENE,60,2.0,3.0,-999,-99.99,,,-99.99,,2013-05-01 11:52:00,
2013-05-01 05:02:00,36.0,-99.9,30.53,NNE,23,2.0,4.0,-999,-99.99,,,-99.99,,2013-05-01 12:02:00,
2013-05-01 05:11:00,37.0,-99.9,30.53,NNE,19,2.0,2.0,-999,-99.99,,,-99.99,,2013-05-01 12:11:00,
2013-05-01 05:22:00,37.0,-99.9,30.53,North,9,2.0,2.0,-999,-99.99,,,-99.99,,2013-05-01 12:22:00,
2013-05-01 05:32:00,36.0,-99.9,30.53,NNE,18,1.0,2.0,-999,-99.99,,,-99.99,,2013-05-01 12:32:00,
2013-05-01 05:42:00,37.0,-99.9,30.53,NNE,25,2.0,3.0,-999,-99.99,,,-99.99,,2013-05-01 12:42:00,
2013-05-01 05:52:00,36.0,-99.9,30.54,ENE,72,2.0,4.0,-999,-99.99,,,-99.99,,2013-05-01 12:52:00,
2013-05-01 06:02:00,36.0,-99.9,30.53,ENE,74,2.0,4.0,-999,-99.99,,,-99.99,,2013-05-01 13:02:00,
2013-05-01 06:11:00,36.0,-99.9,30.53,ENE,63,2.0,4.0,-999,-99.99,,,-99.99,,2013-05-01 13:11:00,
2013-05-01 06:22:00,35.0,-99.9,30.54,NNE,28,2.0,4.0,-999,-99.99,,,-99.99,,2013-05-01 13:22:00,
2013-05-01 06:32:00,35.0,-99.9,30.54,NE,53,2.0,3.0,-999,-99.99,,,-99.99,,2013-05-01 13:32:00,
2013-05-01 06:42:00,35.0,-99.9,30.54,NE,54,3.0,4.0,-999,-99.99,,,-99.99,,2013-05-01 13:42:00,
2013-05-01 06:52:00,35.0,-99.9,30.54,NE,52,3.0,4.0,-999,-99.99,,,-99.99,,2013-05-01 13:52:00,
2013-05-01 07:02:00,35.0,-99.9,30.54,NE,51,2.0,3.0,-999,-99.99,,,-99.99,,2013-05-01 14:02:00,
2013-05-01 07:11:00,36.0,-99.9,30.55,NNE,28,2.0,2.0,-999,-99.99,,,-99.99,,2013-05-01 14:11:00,
2013-05-01 07:22:00,36.0,-99.9,30.55,ENE,60,2.0,3.0,-999,-99.99,,,-99.99,,2013-05-01 14:22:00,
2013-05-01 07:32:00,37.0,-99.9,30.55,NE,52,3.0,3.0,-999,-99.99,,,-99.99,,2013-05-01 14:32:00,
2013-05-01 07:42:00,37.0,-99.9,30.55,North,9,2.0,3.0,-999,-99.99,,,-99.99,,2013-05-01 14:42:00,
2013-05-01 07:52:00,39.0,-99.9,30.55,NE,40,1.0,2.0,-999,-99.99,,,-99.99,,2013-05-01 14:52:00,
2013-05-01 08:01:00,40.0,-99.9,30.55,East,94,2.0,3.0,-999,-99.99,,,-99.99,,2013-05-01 15:01:00,
2013-05-01 08:11:00,41.0,-99.9,30.56,NNW,348,1.0,1.0,-999,-99.99,,,-99.99,,2013-05-01 15:11:00,
2013-05-01 08:22:00,41.0,-99.9,30.55,South,171,-999.0,2.0,-999,-99.99,,,-99.99,,2013-05-01 15:22:00,
2013-05-01 08:33:00,41.0,-99.9,30.55,SSW,205,1.0,2.0,-999,-99.99,,,-99.99,,2013-05-01 15:33:00,
2013-05-01 08:43:00,43.0,-99.9,30.55,SSW,192,-999.0,1.0,-999,-99.99,,,-99.99,,2013-05-01 15:43:00,
2013-05-01 08:53:00,43.0,-99.9,30.55,SSE,165,1.0,2.0,-999,-99.99,,,-99.99,,2013-05-01 15:53:00,
2013-05-01 09:03:00,42.0,-99.9,30.55,West,262,1.0,2.0,-999,-99.99,,,-99.99,,2013-05-01 16:03:00,
2013-05-01 09:12:00,42.0,-99.9,30.55,WNW,289,3.0,4.0,-999,-99.99,,,-99.99,,2013-05-01 16:12:00,
2013-05-01 09:22:00,43.0,-99.9,30.55,WNW,294,2.0,3.0,-999,-99.99,,,-99.99,,2013-05-01 16:22:00,
2013-05-01 09:32:00,43.0,-99.9,30.56,WSW,240,2.0,3.0,-999,-99.99,,,-99.99,,2013-05-01 16:32:00,
2013-05-01 09:42:00,44.0,-99.9,30.56,WSW,251,3.0,5.0,-999,-99.99,,,-99.99,,2013-05-01 16:42:00,
2013-05-01 09:53:00,44.0,-99.9,30.55,West,273,3.0,4.0,-999,-99.99,,,-99.99,,2013-05-01 16:53:00,
2013-05-01 10:02:00,45.0,-99.9,30.55,WSW,253,3.0,4.0,-999,-99.99,,,-99.99,,2013-05-01 17:02:00,
2013-05-01 10:12:00,45.0,-99.9,30.55,West,267,3.0,5.0,-999,-99.99,,,-99.99,,2013-05-01 17:12:00,
2013-05-01 10:22:00,46.0,-99.9,30.55,West,259,5.0,5.0,-999,-99.99,,,-99.99,,2013-05-01 17:22:00,
2013-05-01 10:32:00,47.0,-99.9,30.55,West,272,4.0,5.0,-999,-99.99,,,-99.99,,2013-05-01 17:32:00,
2013-05-01 10:42:00,47.0,-99.9,30.55,WSW,253,2.0,4.0,-999,-99.99,,,-99.99,,2013-05-01 17:42:00,
2013-05-01 10:52:00,48.0,-99.9,30.55,WSW,246,4.0,5.0,-999,-99.99,,,-99.99,,2013-05-01 17:52:00,
2013-05-01 11:02:00,48.0,-99.9,30.54,WSW,242,4.0,5.0,-999,-99.99,,,-99.99,,2013-05-01 18:02:00,
2013-05-01 11:12:00,49.0,-99.9,30.54,WSW,254,3.0,4.0,-999,-99.99,,,-99.99,,2013-05-01 18:12:00,
2013-05-01 11:22:00,50.0,-99.9,30.54,WSW,245,2.0,3.0,-999,-99.99,,,-99.99,,2013-05-01 18:22:00,
2013-05-01 11:32:00,51.0,-99.9,30.54,WSW,249,4.0,5.0,-999,-99.99,,,-99.99,,2013-05-01 18:32:00,
2013-05-01 11:42:00,51.0,-99.9,30.54,WNW,285,5.0,6.0,-999,-99.99,,,-99.99,,2013-05-01 18:42:00,
2013-05-01 11:52:00,53.0,-99.9,30.54,West,281,4.0,6.0,-999,-99.99,,,-99.99,,2013-05-01 18:52:00,
2013-05-01 12:02:00,52.0,-99.9,30.54,West,279,7.0,8.0,-999,-99.99,,,-99.99,,2013-05-01 19:02:00,
2013-05-01 12:11:00,53.0,-99.9,30.54,West,269,5.0,7.0,-999,-99.99,,,-99.99,,2013-05-01 19:11:00,
2013-05-01 12:22:00,54.0,-99.9,30.54,West,262,5.0,6.0,-999,-99.99,,,-99.99,,2013-05-01 19:22:00,
2013-05-01 12:32:00,54.0,-99.9,30.54,West,270,6.0,6.0,-999,-99.99,,,-99.99,,2013-05-01 19:32:00,
2013-05-01 12:43:00,55.0,-99.9,30.53,West,265,5.0,6.0,-999,-99.99,,,-99.99,,2013-05-01 19:43:00,
2013-05-01 12:52:00,55.0,-99.9,30.53,West,265,5.0,6.0,-999,-99.99,,,-99.99,,2013-05-01 19:52:00,
2013-05-01 13:02:00,55.0,-99.9,30.53,WSW,254,5.0,6.0,-999,-99.99,,,-99.99,,2013-05-01 20:02:00,
2013-05-01 13:11:00,56.0,-99.9,30.53,WSW,251,5.0,6.0,-999,-99.99,,,-99.99,,2013-05-01 20:11:00,
2013-05-01 13:22:00,57.0,-99.9,30.52,West,280,4.0,5.0,-999,-99.99,,,-99.99,,2013-05-01 20:22:00,
2013-05-01 13:32:00,56.0,-99.9,30.52,West,271,4.0,5.0,-999,-99.99,,,-99.99,,2013-05-01 20:32:00,
2013-05-01 13:42:00,58.0,-99.9,30.52,WSW,254,3.0,8.0,-999,-99.99,,,-99.99,,2013-05-01 20:42:00,
2013-05-01 13:52:00,58.0,-99.9,30.51,West,268,5.0,6.0,-999,-99.99,,,-99.99,,2013-05-01 20:52:00,
2013-05-01 14:01:00,58.0,-99.9,30.51,West,274,4.0,6.0,-999,-99.99,,,-99.99,,2013-05-01 21:01:00,
2013-05-01 14:11:00,58.0,-99.9,30.51,West,260,6.0,7.0,-999,-99.99,,,-99.99,,2013-05-01 21:11:00,
2013-05-01 14:22:00,59.0,-99.9,30.51,West,262,6.0,9.0,-999,-99.99,,,-99.99,,2013-05-01 21:22:00,
2013-05-01 14:32:00,59.0,-99.9,30.51,WNW,282,5.0,6.0,-999,-99.99,,,-99.99,,2013-05-01 21:32:00,
2013-05-01 14:43:00,60.0,-99.9,30.51,West,266,4.0,6.0,-999,-99.99,,,-99.99,,2013-05-01 21:43:00,
2013-05-01 14:53:00,60.0,-99.9,30.51,West,263,5.0,6.0,-999,-99.99,,,-99.99,,2013-05-01 21:53:00,
2013-05-01 15:03:00,61.0,-99.9,30.51,WNW,285,7.0,8.0,-999,-99.99,,,-99.99,,2013-05-01 22:03:00,
2013-05-01 15:13:00,62.0,-99.9,30.51,West,271,6.0,8.0,-999,-99.99,,,-99.99,,2013-05-01 22:13:00,
2013-05-01 15:23:00,63.0,-99.9,30.51,WNW,292,7.0,10.0,-999,-99.99,,,-99.99,,2013-05-01 22:23:00,
2013-05-01 15:33:00,63.0,-99.9,30.50,West,268,5.0,8.0,-999,-99.99,,,-99.99,,2013-05-01 22:33:00,
2013-05-01 15:42:00,63.0,-99.9,30.50,WNW,282,6.0,7.0,-999,-99.99,,,-99.99,,2013-05-01 22:42:00,
2013-05-01 15:53:00,63.0,-99.9,30.50,West,273,4.0,6.0,-999,-99.99,,,-99.99,,2013-05-01 22:53:00,
2013-05-01 16:02:00,63.0,-99.9,30.50,West,271,5.0,6.0,-999,-99.99,,,-99.99,,2013-05-01 23:02:00,
2013-05-01 16:12:00,63.0,-99.9,30.50,West,278,5.0,6.0,-999,-99.99,,,-99.99,,2013-05-01 23:12:00,
2013-05-01 16:22:00,65.0,-99.9,30.50,WSW,255,5.0,5.0,-999,-99.99,,,-99.99,,2013-05-01 23:22:00,
2013-05-01 16:32:00,65.0,-99.9,30.49,West,262,4.0,6.0,-999,-99.99,,,-99.99,,2013-05-01 23:32:00,
2013-05-01 16:42:00,65.0,-99.9,30.49,West,273,3.0,5.0,-999,-99.99,,,-99.99,,2013-05-01 23:42:00,
2013-05-01 16:52:00,66.0,-99.9,30.49,West,281,2.0,4.0,-999,-99.99,,,-99.99,,2013-05-01 23:52:00,
2013-05-01 17:01:00,68.0,-99.9,30.49,NNW,333,4.0,7.0,-999,-99.99,,,-99.99,,2013-05-02 00:01:00,
2013-05-01 17:11:00,68.0,-99.9,30.48,NNW,339,4.0,7.0,-999,-99.99,,,-99.99,,2013-05-02 00:11:00,
2013-05-01 17:22:00,68.0,-99.9,30.48,North,349,8.0,12.0,-999,-99.99,,,-99.99,,2013-05-02 00:22:00,
2013-05-01 17:32:00,68.0,-99.9,30.48,NNW,338,6.0,11.0,-999,-99.99,,,-99.99,,2013-05-02 00:32:00,
2013-05-01 17:42:00,68.0,-99.9,30.48,NNW,348,6.0,10.0,-999,-99.99,,,-99.99,,2013-05-02 00:42:00,
2013-05-01 17:52:00,68.0,-99.9,30.48,NNW,346,4.0,10.0,-999,-99.99,,,-99.99,,2013-05-02 00:52:00,
2013-05-01 18:01:00,68.0,-99.9,30.48,North,349,7.0,12.0,-999,-99.99,,,-99.99,,2013-05-02 01:01:00,
2013-05-01 18:11:00,68.0,-99.9,30.48,North,349,7.0,10.0,-999,-99.99,,,-99.99,,2013-05-02 01:11:00,
2013-05-01 18:22:00,68.0,-99.9,30.48,North,349,8.0,12.0,-999,-99.99,,,-99.99,,2013-05-02 01:22:00,
2013-05-01 18:32:00,67.0,-99.9,30.48,North,349,6.0,11.0,-999,-99.99,,,-99.99,,2013-05-02 01:32:00,
2013-05-01 18:42:00,67.0,-99.9,30.48,NNW,341,6.0,11.0,-999,-99.99,,,-99.99,,2013-05-02 01:42:00,
2013-05-01 18:52:00,67.0,-99.9,30.48,North,350,9.0,13.0,-999,-99.99,,,-99.99,,2013-05-02 01:52:00,
2013-05-01 19:02:00,66.0,-99.9,30.48,North,349,9.0,13.0,-999,-99.99,,,-99.99,,2013-05-02 02:02:00,
2013-05-01 19:12:00,66.0,-99.9,30.48,NNW,347,9.0,13.0,-999,-99.99,,,-99.99,,2013-05-02 02:12:00,
2013-05-01 19:22:00,65.0,-99.9,30.48,North,352,7.0,11.0,-999,-99.99,,,-99.99,,2013-05-02 02:22:00,
2013-05-01 19:32:00,65.0,-99.9,30.48,North,353,8.0,11.0,-999,-99.99,,,-99.99,,2013-05-02 02:32:00,
2013-05-01 19:42:00,65.0,-99.9,30.48,North,353,8.0,11.0,-999,-99.99,,,-99.99,,2013-05-02 02:42:00,
2013-05-01 19:52:00,65.0,-99.9,30.48,North,353,8.0,11.0,-999,-99.99,,,-99.99,,2013-05-02 02:52:00,
2013-05-01 20:01:00,64.0,-99.9,30.48,NNW,345,7.0,13.0,-999,-99.99,,,-99.99,,2013-05-02 03:01:00,
2013-05-01 20:11:00,63.0,-99.9,30.48,NNW,338,5.0,9.0,-999,-99.99,,,-99.99,,2013-05-02 03:11:00,
2013-05-01 20:22:00,63.0,-99.9,30.48,NNW,343,7.0,12.0,-999,-99.99,,,-99.99,,2013-05-02 03:22:00,
2013-05-01 20:33:00,62.0,-99.9,30.49,NNW,331,6.0,10.0,-999,-99.99,,,-99.99,,2013-05-02 03:33:00,
2013-05-01 20:43:00,62.0,-99.9,30.49,NNW,342,4.0,9.0,-999,-99.99,,,-99.99,,2013-05-02 03:43:00,
2013-05-01 20:53:00,62.0,-99.9,30.49,NNW,332,3.0,5.0,-999,-99.99,,,-99.99,,2013-05-02 03:53:00,
2013-05-01 21:03:00,61.0,-99.9,30.49,NW,306,2.0,6.0,-999,-99.99,,,-99.99,,2013-05-02 04:03:00,
2013-05-01 21:12:00,61.0,-99.9,30.50,North,352,2.0,3.0,-999,-99.99,,,-99.99,,2013-05-02 04:12:00,
2013-05-01 21:23:00,61.0,-99.9,30.50,NW,317,3.0,4.0,-999,-99.99,,,-99.99,,2013-05-02 04:23:00,
2013-05-01 21:33:00,60.0,-99.9,30.50,North,11,3.0,7.0,-999,-99.99,,,-99.99,,2013-05-02 04:33:00,
2013-05-01 21:43:00,60.0,-99.9,30.50,NW,305,0.0,3.0,-999,-99.99,,,-99.99,,2013-05-02 04:43:00,
2013-05-01 21:52:00,59.0,-99.9,30.51,SSE,155,1.0,4.0,-999,-99.99,,,-99.99,,2013-05-02 04:52:00,
2013-05-01 22:02:00,58.0,-99.9,30.51,SE,130,4.0,6.0,-999,-99.99,,,-99.99,,2013-05-02 05:02:00,
2013-05-01 22:12:00,59.0,-99.9,30.51,South,175,4.0,6.0,-999,-99.99,,,-99.99,,2013-05-02 05:12:00,
2013-05-01 22:22:00,58.0,-99.9,30.51,ESE,107,2.0,3.0,-999,-99.99,,,-99.99,,2013-05-02 05:22:00,
2013-05-01 22:32:00,58.0,-99.9,30.51,SSW,192,2.0,3.0,-999,-99.99,,,-99.99,,2013-05-02 05:32:00,
2013-05-01 22:42:00,58.0,-99.9,30.50,NW,318,0.0,2.0,-999,-99.99,,,-99.99,,2013-05-02 05:42:00,
2013-05-01 22:52:00,58.0,-99.9,30.50,NNW,346,-999.0,4.0,-999,-99.99,,,-99.99,,2013-05-02 05:52:00,
2013-05-01 23:02:00,58.0,-99.9,30.50,North,356,2.0,6.0,-999,-99.99,,,-99.99,,2013-05-02 06:02:00,
2013-05-01 23:12:00,58.0,-99.9,30.50,North,356,2.0,3.0,-999,-99.99,,,-99.99,,2013-05-02 06:12:00,
2013-05-01 23:22:00,56.0,-99.9,30.50,SSW,211,1.0,2.0,-999,-99.99,,,-99.99,,2013-05-02 06:22:00,
2013-05-01 23:32:00,55.0,-99.9,30.50,South,184,1.0,2.0,-999,-99.99,,,-99.99,,2013-05-02 06:32:00,
2013-05-01 23:42:00,55.0,-99.9,30.51,South,169,3.0,4.0,-999,-99.99,,,-99.99,,2013-05-02 06:42:00,
2013-05-01 23:52:00,56.0,-99.9,30.50,SSE,150,3.0,4.0,-999,-99.99,,,-99.99,,2013-05-02 06:52:00,